Tracking 30417 objects as of 16-May-2025
HD Live streaming from Space Station
objects crossing your sky now

THORAD AGENA D DEB

Track THORAD AGENA D DEB now!
10-day predictions


NORAD ID: 4706
Int'l Code: 1970-025BU
Perigee: 1,069.9 km
Apogee: 1,120.0 km
Inclination: 99.8 °
Period: 107.0 minutes
Semi major axis: 7465 km
RCS: 0.0135 m2 (small)
Launch date: April 8, 1970
Source: United States (US)
Launch site: AIR FORCE WESTERN TEST RANGE (AFWTR)

Note: This is SATELLITE DEBRIS
Your satellite tracking list
Your tracking list is empty




NASA's NSSDC Master Catalog

Two Line Element Set (TLE):
1 04706U 70025BU  25134.96454001  .00000046  00000-0  15065-3 0  9995
2 04706  99.8154  37.4764 0033550 302.8987 121.4675 13.45796816703847
Source of the keplerian elements: AFSPC